星链-31521 (STARLINK-31521 )

导读 | 星芒AI

STARLINK-31521 是 SpaceX 星链计划中的一颗低轨道通信卫星,属于星链第三代组网卫星的一部分。该卫星于2023年发射,旨在为全球用户提供高速互联网服务。它运行在约550公里高度的近地轨道,具备先进的通信技术和激光互联能力,以提升网络效率和覆盖范围。作为星链系统的重要组成,STARLINK-31521 有助于增强偏远地区的网络接入能力,并支持星链在全球范围内的持续扩展。

基本信息
目录编号:
59015
目录名称:
STARLINK-31521
国际标识:
2024-036T
轨道中心:
EARTH
卫星名称:
星链-31521
卫星全名:
星链-31521 (STARLINK-31521 )
卫星状态:
在轨 (已飞行666 天)
发射日期:
2024-02-23 UTC
国别 :
美国 (US)
星等 :
--
轨道信息
数据来源 国际轨道数据
星历时间: 2025-12-20T02:32:15+0800
6小时前
查看轨道信息
半长轴: 6853.374km
偏心率: 0.0001189
轨道倾角: 53.160°
近地点辐角 83.412°
升交点赤经 89.610°
平近点角 276.701°
近地点: 474.422km
远地点: 476.052km
周期: 94.106分钟
每日圈数: 15.301929
详细信息
固有亮度:
5
最大亮度:
0.3
卫星平台:
Starlink v2.0 mini
覆盖范围:
全球
运营商:
太空探索技术公司
运营商所在国:
美国
制造商(研发单位):
太空探索技术公司
制造商所在国:
美国
使用方式:
暂无
卫星简介
星链(Starlink)计划是由太空探索技术公司(SpaceX)提出的一个巨型低轨卫星互联网星座项目,计划在2019年至2024年间在太空搭建由约1.2万颗卫星组成的“星链”网络,其中1584颗将部署在地球上空550千米处的近地轨道,并从2020年开始工作。该卫星仍在工作。
2D轨道图
3D轨道图
轨道高度分析图
轨道倾角分析图
轨道综合分析图
查看轨道综合分析图